Tracking 29892 objects as of 21-Nov-2024
HD Live streaming from Space Station
objects crossing your sky now

DELTA 1 DEB

Track DELTA 1 DEB now!
10-day predictions


NORAD ID: 47114
Int'l Code: 1973-086JF
Perigee: 1,412.0 km
Apogee: 1,562.2 km
Inclination: 101.6 °
Period: 115.5 minutes
Semi major axis: 7858 km
RCS: Unknown
Launch date: November 6, 1973
Source: United States (US)
Launch site: AIR FORCE WESTERN TEST RANGE (AFWTR)

Note: This is SATELLITE DEBRIS
Your satellite tracking list
Your tracking list is empty




NASA's NSSDC Master Catalog

Two Line Element Set (TLE):
1 47114U 73086JF  24320.44208014  .00000021  00000-0  43784-3 0  9997
2 47114 101.5874 212.5136 0095584 193.6785 166.1689 12.46317528494312
Source of the keplerian elements: AFSPC